EW8567 Weather Reports


time (UTC)temp
C
wind
direction
speed
KPH
gust
KPH
rain 1hr
cm
rain 24hr
cm
rain mn
cm
humidity
%
barometer
mb
20260504025008 8 90 4.8 11.3 0.00 0.64 0.64 94 1009.5
20260504024503 8 85 4.8 11.3 0.00 0.64 0.64 94 1009.5
20260504024007 8 83 4.8 11.3 0.00 0.64 0.64 94 1009.5
20260504023504 8 84 4.8 12.9 0.00 0.64 0.64 94 1009.5
20260504023007 8 81 4.8 12.9 0.00 0.64 0.64 94 1009.5
20260504022503 8 77 4.8 12.9 0.03 0.64 0.64 94 1009.6
20260504022007 8 82 4.8 11.3 0.03 0.64 0.64 94 1009.9
20260504021504 8 84 4.8 11.3 0.05 0.64 0.64 94 1009.8
20260504021007 7 83 4.8 9.7 0.10 0.64 0.64 94 1009.9
20260504020503 8 79 4.8 9.7 0.13 0.64 0.64 94 1010.1
20260504020008 7 75 4.8 9.7 0.13 0.64 0.64 94 1010.1
20260504015503 8 76 4.8 11.3 0.15 0.64 0.64 94 1010.2
20260504015007 8 77 4.8 11.3 0.18 0.64 0.64 94 1010.4
20260504014504 8 86 3.2 6.4 0.20 0.64 0.64 94 1010.5
20260504014007 7 90 3.2 9.7 0.20 0.64 0.64 94 1010.6
20260504013503 7 82 1.6 9.7 0.23 0.64 0.64 94 1010.7
20260504013007 7 83 3.2 11.3 0.20 0.61 0.61 94 1010.8
20260504012504 7 84 3.2 11.3 0.23 0.61 0.61 93 1011.0
20260504012007 7 75 3.2 6.4 0.23 0.61 0.61 93 1011.1
20260504011503 7 89 1.6 6.4 0.20 0.53 0.53 93 1011.3
20260504011007 7 115 1.6 6.4 0.20 0.53 0.53 93 1011.3
20260504010504 7 111 1.6 3.2 0.18 0.51 0.51 93 1011.5
20260504010007 7 114 1.6 3.2 0.18 0.51 0.51 93 1011.7
20260504005503 7 120 1.6 6.4 0.15 0.48 0.48 93 1011.8
20260504005007 7 117 1.6 6.4 0.13 0.46 0.46 93 1011.8
20260504004504 7 94 1.6 6.4 0.10 0.43 0.43 93 1011.8
20260504004007 7 78 1.6 6.4 0.10 0.43 0.43 93 1011.8
20260504003503 7 90 1.6 6.4 0.10 0.38 0.38 93 1011.8
20260504003007 7 93 1.6 6.4 0.10 0.38 0.38 93 1011.8
20260504002503 7 102 1.6 6.4 0.10 0.36 0.36 93 1011.8
20260504002007 7 108 1.6 6.4 0.10 0.36 0.36 93 1011.9
20260504001504 7 100 1.6 6.4 0.10 0.33 0.33 93 1012.0
20260504001007 7 90 1.6 6.4 0.10 0.33 0.33 93 1011.9
20260504000503 7 87 3.2 6.4 0.10 0.33 0.33 93 1012.0
20260504000007 7 91 1.6 6.4 0.10 0.33 0.33 93 1012.1
20260503235504 7 94 1.6 9.7 0.10 0.33 0.33 93 1012.2
20260503235006 7 90 3.2 9.7 0.13 0.33 0.33 93 1012.2
20260503234504 7 78 1.6 9.7 0.13 0.33 0.33 93 1012.1
20260503234007 7 84 3.2 11.3 0.13 0.33 0.33 92 1012.2
20260503233503 7 90 4.8 11.3 0.13 0.30 0.30 92 1012.3
20260503233008 7 90 4.8 11.3 0.13 0.30 0.30 92 1012.3
20260503232503 7 85 3.2 9.7 0.10 0.28 0.28 92 1012.7
20260503232007 7 87 3.2 6.4 0.10 0.28 0.28 92 1012.8
20260503231503 7 83 3.2 6.4 0.05 0.23 0.23 92 1012.9
20260503231007 7 83 1.6 6.4 0.05 0.23 0.23 92 1013.1
20260503230504 7 86 1.6 6.4 0.05 0.23 0.23 92 1013.3
20260503230007 7 79 1.6 6.4 0.05 0.23 0.23 92 1013.2
20260503225503 7 76 3.2 11.3 0.05 0.23 0.23 92 1013.1
20260503225007 7 83 6.4 12.9 0.03 0.20 0.20 92 1013.1
20260503224504 7 90 8.0 12.9 0.03 0.20 0.20 92 1013.0
20260503224008 7 87 6.4 12.9 0.03 0.20 0.20 92 1013.1
20260503223503 7 84 6.4 11.3 0.00 0.18 0.18 91 1013.5
20260503223007 7 82 4.8 11.3 0.00 0.18 0.18 91 1013.5
20260503222504 7 70 3.2 6.4 0.00 0.18 0.18 90 1013.6
20260503222007 7 62 3.2 6.4 0.00 0.18 0.18 90 1013.8
20260503221504 7 67 1.6 6.4 0.00 0.18 0.18 90 1013.9
20260503221006 7 68 1.6 6.4 0.00 0.18 0.18 90 1014.0
20260503220504 7 72 1.6 3.2 0.00 0.18 0.18 91 1014.1
20260503220007 7 82 0.0 3.2 0.00 0.18 0.18 91 1014.1
20260503215503 7 90 0.0 3.2 0.00 0.18 0.18 91 1014.2
20260503215008 7 88 1.6 3.2 0.00 0.18 0.18 91 1014.1
20260503214503 7 80 1.6 3.2 0.00 0.18 0.18 91 1014.3
20260503214007 7 69 1.6 6.4 0.00 0.18 0.18 91 1014.2
20260503213503 7 80 1.6 6.4 0.00 0.18 0.18 91 1014.4
20260503213007 7 92 3.2 6.4 0.00 0.18 0.18 91 1014.4
20260503212503 7 101 1.6 3.2 0.00 0.18 0.18 91 1014.3
20260503212007 7 112 0.0 3.2 0.00 0.18 0.18 92 1014.6
20260503211504 7 111 0.0 3.2 0.00 0.18 0.18 91 1015.0
20260503211007 7 111 0.0 3.2 0.00 0.18 0.18 91 1015.0
20260503210503 7 112 0.0 3.2 0.00 0.18 0.18 91 1015.0
20260503210008 7 115 0.0 3.2 0.00 0.18 0.18 91 1015.1
20260503205503 7 126 0.0 3.2 0.03 0.18 0.18 91 1014.9
20260503205007 7 135 0.0 3.2 0.03 0.18 0.18 91 1015.1
20260503204504 7 135 0.0 3.2 0.05 0.18 0.18 91 1015.1
20260503204007 7 135 0.0 3.2 0.13 0.18 0.18 90 1015.1
20260503203504 7 136 0.0 3.2 0.15 0.18 0.18 90 1015.1
20260503203007 7 143 0.0 3.2 0.15 0.18 0.18 90 1015.3
20260503202504 7 158 0.0 3.2 0.15 0.18 0.18 90 1015.3
20260503202007 7 167 0.0 3.2 0.15 0.18 0.18 90 1015.4
20260503201504 7 186 0.0 3.2 0.15 0.18 0.18 90 1015.4
20260503201008 7 181 0.0 3.2 0.15 0.18 0.18 89 1015.6
20260503200503 7 188 0.0 3.2 0.15 0.18 0.18 89 1015.6
20260503200010 7 195 1.6 3.2 0.18 0.18 0.18 88 1015.7
20260503195506 7 196 1.6 3.2 0.15 0.15 0.15 88 1015.8
20260503195009 7 194 0.0 3.2 0.15 0.15 0.15 87 1015.8
20260503194506 7 203 1.6 3.2 0.13 0.13 0.13 86 1015.6
20260503194009 7 206 1.6 6.4 0.05 0.05 0.05 85 1015.8
20260503193506 7 207 1.6 6.4 0.03 0.03 0.03 85 1015.9
20260503193009 7 207 3.2 6.4 0.03 0.03 0.03 85 1016.1
20260503192506 7 206 3.2 6.4 0.03 0.03 0.03 85 1016.1
20260503192010 8 200 1.6 6.4 0.03 0.03 0.03 84 1016.1
20260503191505 8 194 3.2 6.4 0.03 0.03 0.03 83 1016.2
20260503191009 8 197 3.2 6.4 0.03 0.03 0.03 83 1016.1
20260503190506 8 196 3.2 6.4 0.03 0.03 0.03 82 1016.1
20260503190010 8 196 1.6 6.4 0.00 0.00 0.00 81 1016.1
20260503185506 8 194 1.6 3.2 0.00 0.00 0.00 79 1016.0
20260503185009 8 183 1.6 3.2 0.00 0.00 0.00 78 1015.9
20260503184506 8 190 1.6 6.4 0.00 0.00 0.00 78 1015.9
20260503184009 8 199 1.6 6.4 0.00 0.00 0.00 77 1015.9
20260503183506 8 201 3.2 6.4 0.00 0.00 0.00 77 1016.1
20260503183009 8 204 3.2 6.4 0.00 0.00 0.00 77 1016.0
20260503182506 8 202 3.2 6.4 0.00 0.00 0.00 76 1016.0
20260503182009 8 190 3.2 6.4 0.00 0.00 0.00 76 1016.0
20260503181506 8 196 4.8 11.3 0.00 0.00 0.00 76 1016.0
20260503181009 8 206 3.2 11.3 0.00 0.00 0.00 76 1016.1
20260503180506 8 187 3.2 6.4 0.00 0.00 0.00 76 1016.1
20260503180009 8 170 1.6 6.4 0.00 0.00 0.00 76 1016.1
20260503175505 8 175 1.6 6.4 0.00 0.00 0.00 76 1016.1
20260503175009 8 185 1.6 6.4 0.00 0.00 0.00 76 1016.0
20260503174506 8 186 1.6 6.4 0.00 0.00 0.00 76 1016.3
20260503174009 8 173 1.6 3.2 0.00 0.00 0.00 76 1016.3
20260503173506 8 172 1.6 3.2 0.00 0.00 0.00 76 1016.4
20260503173009 8 170 1.6 6.4 0.00 0.00 0.00 76 1016.6
20260503172505 8 191 3.2 9.7 0.00 0.00 0.00 75 1016.4
20260503172009 8 194 3.2 9.7 0.00 0.00 0.00 75 1016.5
20260503171506 8 194 1.6 6.4 0.00 0.00 0.00 75 1016.6
20260503171009 8 197 1.6 6.4 0.00 0.00 0.00 75 1016.5
20260503170506 8 193 3.2 6.4 0.00 0.00 0.00 74 1016.6
20260503151010 11 218 3.2 9.7 0.00 0.00 0.00 58 1016.5
20260503150505 11 217 1.6 6.4 0.00 0.00 0.00 57 1016.5
20260503131009 13 210 8.0 17.7 0.00 0.00 0.00 44 1017.3
20260503130505 13 227 9.7 20.9 0.00 0.00 0.00 45 1017.3